sat.trackr.live / text

‹ back to catalog

DUMMY SAT 3

NORAD 59479 · 2024-069A

PAYLOAD ACTIVE UNKNOWN

§ Identity

Operator
Country
CIS
Launch date
2024-04-11
Launch site
VOSTO
Launch vehicle
Mass (kg)
RCS (m²)

External: N2YO · Heavens-Above · Gunter

§ Orbital elements

Epoch: 2026-09-22T18:37:24.602880Z

Period
1,460.30 min
Inclination
2.3772°
Eccentricity
0.0052471
Mean motion
0.98609628 rev/d
Perigee alt
36,035.4 km
Apogee alt
36,482.8 km
Semi-major
42,637.2 km
B*
0.0000e+0
RAAN
80.2061°
Arg perigee
137.3347°
Mean anomaly
223.6825°
Rev number
877

§ Raw data

DUMMY SAT 31 59479U 24069A   26265.77597920 -.00000237  00000+0  00000+0 0  99932 59479   2.3772  80.2061 0052471 137.3347 223.6825  0.98609628  8779

JSON: /api/v1/satellites/59479 · /tle

For live sub-satellite position, see the globe view (requires WebGL).

§ Visibility from observer

Set your observer location to see the next 7 days of passes ≥ 10°. The values pass through the URL so the page stays shareable.

No JS? Fill the form by hand. The geolocation button needs JavaScript.